Location: Newark
(52.0167°N, 6.1333°E)
Time: 20:39:45
(UTC+00:00)

N. Korean satellite - Pass Details

Date: 28 September 2019
Orbit: 455 x 508 km, 97.2° (Epoch: 20 October)

Event Time Altitude Azimuth Distance (km) Brightness Sun altitude
Rises 04:41:17 0° 27° (NNE) 2,487 10.7 -8.4°
Reaches altitude 10° 04:43:51 10° 48° (NE) 1,609 10.1 -8.0°
Maximum altitude 04:46:13 17° 92° (E) 1,222 10.0 -7.7°
Drops below altitude 10° 04:48:36 10° 135° (SE) 1,607 9.8 -7.3°
Sets 04:51:09 0° 156° (SSE) 2,484 10.4 -6.9°
